Hourly Data Report for November 06, 2019

PILGER
SASKATCHEWAN
Current Station Operator: ECCC - MSC

52°25'00.000" N
105°09'00.000" W
552.00 m
4056121
71655
PUN

Download Data

Hourly Data (November 2019)
Hourly Data Report for November 6, 2019
TIME
LST
Temp Definition
°C
Dew Point Definition
°C
Rel Hum Definition
%
Precip. Amount Definition
mm

Wind Dir Definition
10's deg

Wind Spd Definition
km/h
Visibility Definition
km
Stn Press Definition
kPa
Hmdx Definition


Wind Chill Definition


Weather Definition


00:00 -11.8 -14.2 82 0.0 31 20   96.36   -20 LegendNANA
01:00 -11.6 -15.5 73 0.0 34 27   96.45   -21 LegendNANA
02:00 -13.6 -18.0 70 0.0 33 20   96.49   -22 LegendNANA
03:00 -14.5 -18.3 73 0.0 31 18   96.53   -23 LegendNANA
04:00 -15.2 -19.1 72 0.0 32 20   96.58   -24 LegendNANA
05:00 -15.4 -18.9 75 0.0 31 19   96.61   -24 LegendNANA
06:00 -16.7 -19.8 77 0.0 30 15   96.66   -25 LegendNANA
07:00 -16.0 -18.8 79 0.0 28 12   96.70   -23 LegendNANA
08:00 -18.0 -20.0 84 0.0 26 13   96.71   -26 LegendNANA
09:00 -17.6 -20.2 80 0.0 26 13   96.76   -25 LegendNANA
10:00 -16.2 -19.2 77 0.0 26 15   96.77   -24 LegendNANA
11:00 -14.1 -17.9 73 0.0 27 13   96.76   -21 LegendNANA
12:00 -13.1 -17.3 71 0.0 27 14   96.73   -20 LegendNANA
13:00 -12.1 -16.6 70 0.0 26 15   96.69   -19 LegendNANA
14:00 -11.2 -16.0 68 0.0 25 13   96.65   -18 LegendNANA
15:00 -10.7 -15.6 68 0.0 26 17   96.60   -18 LegendNANA
16:00 -11.3 -16.0 68 0.0 25 11   96.54   -17 LegendNANA
17:00 -11.8 -15.0 77 0.0 22 12   96.47   -18 LegendNANA
18:00 -12.4 -15.3 79 0.0 22 10   96.41   -18 LegendNANA
19:00 -14.0 -16.3 83 0.0 21 9   96.37   -20 LegendNANA
20:00 -15.2 -17.6 81 0.0 21 8   96.31   -21 LegendNANA
21:00 -14.9 -17.3 82 0.0 23 18   96.24   -24 LegendNANA
22:00 -15.7 -17.9 83 0.0 21 8   96.17   -21 LegendNANA
23:00 -16.7 -18.8 84 0.0 22 13   96.09   -24 LegendNANA

Notes on Data Quality.

Legend

  • E = Estimated
  • M = Missing
  • NA = Not Available*
  • [empty] = Indicates an unobserved value
Date modified: